LNR647 FMEE-LFPG

Flight info

Callsign LNR647
Flight time N/A
Altitude 32000
Route UVENA2N UVENA UN304 DENLI/N0506F330 UN304 APKAK/N0502F340 UN304 DWA DCT XADOX DCT KONET/N0499F350 UG650 RASKA/N0501F340 T513 EGMEG/N0497F350 G660 JDW/N0495F360 L677 CVO L617 NABSI M872 METRU UL81 TETUZ/N0480F380 UL81 LORNO DCT CRN DCT KUTID DCT SIPRO DCT TIMOV DCT IRBAK DCT AOSTA DCT ORSUD DCT MOLUS DCT UNKIR DCT GIVRI/N0487F360 DCT TINIL
Aircraft B77W/H-SDE1E2E3FGHIJ2J3J4J5M1RWXY/LB1D1

Departure

Time 2026-04-20 20:47
Airport Roland Garros Airport (FMEE)

Arrival

Time N/A
Airport Charles de Gaulle International Airport (LFPG)
Time Latitude Longitude Altitude Speed Heading
2026-04-20 20:20 -20.89072 55.51235 79 ft 0 kts 207°
2026-04-20 20:38 -20.89071 55.51236 84 ft 2 kts 207°
2026-04-20 20:38 -20.89048 55.51248 85 ft 4 kts 207°
2026-04-20 20:38 -20.89027 55.51259 81 ft 3 kts 208°
2026-04-20 20:39 -20.89011 55.51275 82 ft 4 kts 270°
2026-04-20 20:39 -20.89018 55.51301 83 ft 4 kts 298°
2026-04-20 20:39 -20.89022 55.51309 79 ft 0 kts 296°
2026-04-20 20:42 -20.89021 55.51306 84 ft 2 kts 296°
2026-04-20 20:42 -20.89000 55.51262 84 ft 11 kts 296°
2026-04-20 20:42 -20.88952 55.51191 84 ft 12 kts 329°
2026-04-20 20:42 -20.88883 55.51165 70 ft 10 kts 342°
2026-04-20 20:43 -20.88781 55.51129 62 ft 18 kts 340°
2026-04-20 20:43 -20.88718 55.51047 61 ft 15 kts 284°
2026-04-20 20:43 -20.88695 55.50940 56 ft 15 kts 281°
2026-04-20 20:43 -20.88674 55.50833 54 ft 15 kts 282°
2026-04-20 20:44 -20.88653 55.50726 53 ft 15 kts 282°
2026-04-20 20:44 -20.88631 55.50619 53 ft 15 kts 283°
2026-04-20 20:44 -20.88603 55.50548 51 ft 7 kts 305°
2026-04-20 20:44 -20.88580 55.50504 55 ft 6 kts 275°
2026-04-20 20:45 -20.88595 55.50493 53 ft 3 kts 183°
2026-04-20 20:45 -20.88606 55.50512 50 ft 3 kts 104°
2026-04-20 20:45 -20.88607 55.50516 57 ft 0 kts 104°
2026-04-20 20:46 -20.88631 55.50620 59 ft 45 kts 103°
2026-04-20 20:46 -20.88752 55.51224 58 ft 119 kts 102°
2026-04-20 20:46 -20.88974 55.52310 53 ft 181 kts 102°
2026-04-20 20:46 -20.89263 55.53742 432 ft 194 kts 102°
2026-04-20 20:47 -20.89335 55.55178 1036 ft 200 kts 75°
2026-04-20 20:47 -20.88519 55.56352 1522 ft 210 kts 32°
2026-04-20 20:47 -20.87051 55.56667 1929 ft 219 kts 355°
2026-04-20 20:47 -20.85573 55.56512 2519 ft 210 kts
2026-04-20 20:48 -20.84122 55.56459 2979 ft 212 kts
2026-04-20 20:48 -20.82616 55.56346 3294 ft 226 kts 360°
2026-04-20 20:48 -20.80978 55.56218 3486 ft 246 kts 360°
2026-04-20 20:48 -20.79229 55.56084 3892 ft 258 kts
2026-04-20 20:49 -20.77409 55.55848 4253 ft 271 kts 345°
2026-04-20 20:49 -20.75638 55.55074 4764 ft 279 kts 339°
2026-04-20 20:49 -20.73842 55.54241 5394 ft 282 kts 340°
2026-04-20 20:49 -20.72028 55.53426 6095 ft 284 kts 341°
2026-04-20 20:50 -20.70203 55.52616 6777 ft 285 kts 341°
2026-04-20 20:50 -20.68355 55.51804 7388 ft 289 kts 341°
2026-04-20 20:50 -20.66486 55.50987 8002 ft 291 kts 341°
2026-04-20 20:50 -20.64591 55.50162 8574 ft 295 kts 341°
2026-04-20 20:51 -20.62675 55.49328 9148 ft 299 kts 340°
2026-04-20 20:51 -20.60740 55.48487 9748 ft 301 kts 340°
2026-04-20 20:51 -20.58787 55.47638 10331 ft 305 kts 340°
2026-04-20 20:51 -20.56782 55.46766 10559 ft 322 kts 339°
2026-04-20 20:52 -20.54672 55.45848 10734 ft 341 kts 339°
2026-04-20 20:52 -20.52388 55.44852 10896 ft 361 kts 339°
2026-04-20 20:52 -20.50003 55.43812 11087 ft 379 kts 339°
2026-04-20 20:52 -20.47533 55.42733 11526 ft 388 kts 339°
2026-04-20 20:53 -20.45052 55.41647 12057 ft 392 kts 338°
2026-04-20 20:53 -20.42505 55.40536 12617 ft 396 kts 339°
2026-04-20 20:53 -20.39934 55.39430 13248 ft 400 kts 338°
2026-04-20 20:53 -20.37347 55.38312 13840 ft 403 kts 339°
2026-04-20 20:54 -20.34725 55.37200 14425 ft 407 kts 338°
2026-04-20 20:54 -20.32090 55.36061 14989 ft 409 kts 338°
2026-04-20 20:54 -20.29430 55.34902 15514 ft 415 kts 338°
2026-04-20 20:54 -20.26759 55.33713 16061 ft 419 kts 337°
2026-04-20 20:55 -20.24066 55.32504 16578 ft 420 kts 336°
2026-04-20 20:55 -20.21342 55.31278 17058 ft 428 kts 338°
2026-04-20 20:55 -20.18589 55.30083 17702 ft 428 kts 338°
2026-04-20 20:55 -20.15815 55.28882 18242 ft 433 kts 338°
2026-04-20 20:56 -20.13013 55.27672 18762 ft 436 kts 338°
2026-04-20 20:56 -20.10187 55.26450 19282 ft 440 kts 338°
2026-04-20 20:56 -20.07362 55.25224 19779 ft 444 kts 337°
2026-04-20 20:56 -20.04496 55.23981 20300 ft 448 kts 337°
2026-04-20 20:57 -20.01600 55.22727 20778 ft 451 kts 337°
2026-04-20 20:57 -19.98676 55.21460 21277 ft 454 kts 337°
2026-04-20 20:57 -19.95736 55.20186 21733 ft 458 kts 337°
2026-04-20 20:57 -19.92766 55.18899 22178 ft 462 kts 337°
2026-04-20 20:58 -19.89780 55.17603 22613 ft 465 kts 337°
2026-04-20 20:58 -19.86772 55.16300 23049 ft 468 kts 337°
2026-04-20 20:58 -19.83745 55.14987 23469 ft 472 kts 337°
2026-04-20 20:58 -19.80696 55.13668 23880 ft 475 kts 337°
2026-04-20 20:59 -19.77627 55.12342 24263 ft 478 kts 337°
2026-04-20 20:59 -19.74539 55.11006 24655 ft 481 kts 337°
2026-04-20 20:59 -19.71475 55.09681 25046 ft 483 kts 337°
2026-04-20 20:59 -19.68353 55.08333 25416 ft 486 kts 337°
2026-04-20 21:00 -19.65204 55.06974 25779 ft 489 kts 337°
2026-04-20 21:00 -19.62046 55.05612 26144 ft 491 kts 337°
2026-04-20 21:00 -19.58873 55.04243 26509 ft 493 kts 337°
2026-04-20 21:00 -19.55685 55.02867 26875 ft 496 kts 337°
2026-04-20 21:01 -19.52483 55.01486 27213 ft 498 kts 337°
2026-04-20 21:01 -19.49264 55.00098 27518 ft 501 kts 336°
2026-04-20 21:01 -19.46018 54.98700 27846 ft 503 kts 336°
2026-04-20 21:01 -19.42769 54.97301 28183 ft 505 kts 336°
2026-04-20 21:02 -19.39508 54.95898 28493 ft 507 kts 336°
2026-04-20 21:02 -19.36234 54.94490 28782 ft 509 kts 336°
2026-04-20 21:02 -19.32947 54.93074 29052 ft 511 kts 336°
2026-04-20 21:02 -19.29646 54.91655 29317 ft 513 kts 336°
2026-04-20 21:03 -19.26369 54.90248 29558 ft 515 kts 336°
2026-04-20 21:03 -19.23008 54.88806 29828 ft 516 kts 336°
2026-04-20 21:03 -19.19716 54.87391 30148 ft 516 kts 336°
2026-04-20 21:03 -19.16353 54.85947 30536 ft 514 kts 336°
2026-04-20 21:04 -19.13088 54.84548 30890 ft 512 kts 336°
2026-04-20 21:04 -19.09787 54.83134 31234 ft 511 kts 336°
2026-04-20 21:04 -19.06496 54.81722 31564 ft 510 kts 336°
2026-04-20 21:04 -19.03210 54.80315 31871 ft 509 kts 336°
2026-04-20 21:05 -18.99953 54.78827 31985 ft 511 kts 330°
2026-04-20 21:05 -18.97082 54.76666 32049 ft 505 kts 315°
2026-04-20 21:05 -18.92082 54.71436 32051 ft 505 kts 313°
2026-04-20 21:06 -18.87068 54.66260 32065 ft 503 kts 314°
2026-04-20 21:06 -18.82847 54.62038 32065 ft 502 kts 315°
2026-04-20 21:07 -18.77748 54.56991 32065 ft 502 kts 315°
2026-04-20 21:07 -18.72651 54.51943 32066 ft 503 kts 315°
2026-04-20 21:08 -18.67554 54.46888 32066 ft 503 kts 315°
2026-04-20 21:08 -18.62443 54.41826 32066 ft 504 kts 315°
2026-04-20 21:09 -18.59761 54.39446 32052 ft 506 kts 326°
2026-04-20 21:09 -18.56642 54.37738 32086 ft 506 kts 335°
2026-04-20 21:09 -18.50127 54.34868 32078 ft 508 kts 336°
2026-04-20 21:10 -18.43660 54.31953 32079 ft 509 kts 335°
2026-04-20 21:10 -18.37185 54.28898 32075 ft 510 kts 334°
2026-04-20 21:11 -18.30710 54.25811 32073 ft 510 kts 334°
2026-04-20 21:11 -18.24246 54.22739 32074 ft 509 kts 334°
2026-04-20 21:12 -18.17777 54.19676 32076 ft 509 kts 334°
2026-04-20 21:12 -18.11314 54.16618 32053 ft 509 kts 334°
2026-04-20 21:13 -18.04841 54.13551 32054 ft 510 kts 334°
2026-04-20 21:13 -17.98377 54.10492 32040 ft 508 kts 334°
2026-04-20 21:14 -17.91939 54.07439 32049 ft 507 kts 334°
2026-04-20 21:14 -17.85515 54.04396 32039 ft 506 kts 334°
2026-04-20 21:15 -17.79136 54.01369 32053 ft 507 kts 334°
2026-04-20 21:15 -17.72700 53.98321 32047 ft 508 kts 334°
2026-04-20 21:16 -17.66260 53.95278 32046 ft 508 kts 334°
2026-04-20 21:16 -17.59803 53.92232 32026 ft 509 kts 334°
2026-04-20 21:17 -17.53337 53.89183 32040 ft 510 kts 334°
2026-04-20 21:17 -17.46884 53.86113 32038 ft 509 kts 334°
2026-04-20 21:18 -17.40438 53.83091 32027 ft 506 kts 334°
2026-04-20 21:18 -17.34003 53.80076 32035 ft 507 kts 334°
2026-04-20 21:19 -17.27603 53.77071 32046 ft 507 kts 334°
2026-04-20 21:20 -17.17948 53.72527 32026 ft 508 kts 334°
2026-04-20 21:20 -17.11505 53.69507 32026 ft 507 kts 334°
2026-04-20 21:21 -17.05069 53.66487 32024 ft 507 kts 334°
2026-04-20 21:21 -16.98638 53.63469 32029 ft 506 kts 334°
2026-04-20 21:22 -16.92211 53.60462 32028 ft 506 kts 334°
2026-04-20 21:22 -16.85790 53.57457 32029 ft 505 kts 334°